Time,TemperatureF,DewpointF,PressureIn,WindDirection,WindDirectionDegrees,WindSpeedMPH,WindSpeedGustMPH,Humidity,HourlyPrecipIn,Conditions,Clouds,dailyrainin,SoftwareType,DateUTC
2013-12-05 00:01:00,10.4,5.7,30.12,SW,225,6.0,31.0,81,0.00,,,0.00,Weather View 32 v70,2013-12-05 06:01:00,
2013-12-05 00:06:00,10.3,4.8,30.12,WNW,292,20.0,31.0,78,0.00,,,0.00,Weather View 32 v70,2013-12-05 06:06:00,
2013-12-05 00:11:00,10.3,5.6,30.13,WNW,292,17.0,31.0,81,0.00,,,0.00,Weather View 32 v70,2013-12-05 06:11:00,
2013-12-05 00:16:00,10.1,4.9,30.12,WNW,292,14.0,37.0,79,0.00,,,0.00,Weather View 32 v70,2013-12-05 06:16:00,
2013-12-05 00:21:00,9.9,5.0,30.12,WNW,292,22.0,37.0,80,0.00,,,0.00,Weather View 32 v70,2013-12-05 06:21:00,
2013-12-05 00:27:00,9.9,5.5,30.12,WNW,292,18.0,37.0,82,0.00,,,0.00,Weather View 32 v70,2013-12-05 06:27:00,
2013-12-05 00:33:00,9.7,5.1,30.13,WNW,292,16.0,37.0,81,0.00,,,0.00,Weather View 32 v70,2013-12-05 06:33:00,
2013-12-05 00:39:00,9.4,4.8,30.14,West,270,22.0,37.0,81,0.00,,,0.00,Weather View 32 v70,2013-12-05 06:39:00,
2013-12-05 00:44:00,9.3,4.7,30.15,NW,315,7.0,37.0,81,0.00,,,0.00,Weather View 32 v70,2013-12-05 06:44:00,
2013-12-05 00:49:00,9.2,4.6,30.16,West,270,16.0,37.0,81,0.00,,,0.00,Weather View 32 v70,2013-12-05 06:49:00,
2013-12-05 00:54:00,9.1,4.2,30.14,West,270,14.0,37.0,80,0.00,,,0.00,Weather View 32 v70,2013-12-05 06:54:00,
2013-12-05 00:59:00,8.9,4.5,30.15,WNW,292,13.0,37.0,82,0.00,,,0.00,Weather View 32 v70,2013-12-05 06:59:00,
2013-12-05 01:04:00,8.9,4.3,30.15,West,270,12.0,37.0,81,0.00,,,0.00,Weather View 32 v70,2013-12-05 07:04:00,
2013-12-05 01:09:00,8.8,4.4,30.16,West,270,11.0,37.0,82,0.00,,,0.00,Weather View 32 v70,2013-12-05 07:09:00,
2013-12-05 01:14:00,8.6,4.0,30.15,West,270,14.0,37.0,81,0.00,,,0.00,Weather View 32 v70,2013-12-05 07:14:00,
2013-12-05 01:19:00,8.4,3.8,30.16,West,270,17.0,36.0,81,0.00,,,0.00,Weather View 32 v70,2013-12-05 07:19:00,
2013-12-05 01:24:00,8.4,3.8,30.16,WNW,292,8.0,31.0,81,0.00,,,0.00,Weather View 32 v70,2013-12-05 07:24:00,
2013-12-05 01:29:00,8.4,3.8,30.16,SW,225,6.0,31.0,81,0.00,,,0.00,Weather View 32 v70,2013-12-05 07:29:00,
2013-12-05 01:34:00,8.3,3.7,30.17,West,270,16.0,31.0,81,0.00,,,0.00,Weather View 32 v70,2013-12-05 07:34:00,
2013-12-05 01:39:00,8.3,3.7,30.16,West,270,8.0,31.0,81,0.00,,,0.00,Weather View 32 v70,2013-12-05 07:39:00,
2013-12-05 01:44:00,8.2,3.0,30.17,WNW,292,12.0,30.0,79,0.00,,,0.00,Weather View 32 v70,2013-12-05 07:44:00,
2013-12-05 01:49:00,8.2,3.8,30.18,West,270,11.0,30.0,82,0.00,,,0.00,Weather View 32 v70,2013-12-05 07:49:00,
2013-12-05 01:54:00,8.1,3.8,30.18,West,270,11.0,30.0,82,0.00,,,0.00,Weather View 32 v70,2013-12-05 07:54:00,
2013-12-05 01:59:00,7.9,3.3,30.18,West,270,14.0,30.0,81,0.00,,,0.00,Weather View 32 v70,2013-12-05 07:59:00,
2013-12-05 02:04:00,7.8,3.5,30.19,West,270,16.0,30.0,82,0.00,,,0.00,Weather View 32 v70,2013-12-05 08:04:00,
2013-12-05 02:09:00,7.8,3.7,30.19,West,270,14.0,30.0,83,0.00,,,0.00,Weather View 32 v70,2013-12-05 08:09:00,
2013-12-05 02:14:00,7.5,3.2,30.20,WNW,292,18.0,30.0,82,0.00,,,0.00,Weather View 32 v70,2013-12-05 08:14:00,
2013-12-05 02:19:00,7.4,3.1,30.20,WNW,292,16.0,30.0,82,0.00,,,0.00,Weather View 32 v70,2013-12-05 08:19:00,
2013-12-05 02:24:00,7.4,3.6,30.20,WNW,292,11.0,30.0,84,0.00,,,0.00,Weather View 32 v70,2013-12-05 08:24:00,
2013-12-05 02:29:00,7.4,3.3,30.20,West,270,16.0,31.0,83,0.00,,,0.00,Weather View 32 v70,2013-12-05 08:29:00,
2013-12-05 02:34:00,7.2,2.6,30.21,NW,315,8.0,31.0,81,0.00,,,0.00,Weather View 32 v70,2013-12-05 08:34:00,
2013-12-05 02:39:00,7.1,3.0,30.22,West,270,12.0,31.0,83,0.00,,,0.00,Weather View 32 v70,2013-12-05 08:39:00,
2013-12-05 02:44:00,6.8,2.5,30.22,West,270,14.0,31.0,82,0.00,,,0.00,Weather View 32 v70,2013-12-05 08:44:00,
2013-12-05 02:49:00,6.7,2.6,30.22,WNW,292,16.0,31.0,83,0.00,,,0.00,Weather View 32 v70,2013-12-05 08:49:00,
2013-12-05 02:54:00,6.6,2.8,30.22,West,270,17.0,31.0,84,0.00,,,0.00,Weather View 32 v70,2013-12-05 08:54:00,
2013-12-05 02:59:00,6.6,2.5,30.23,West,270,11.0,31.0,83,0.00,,,0.00,Weather View 32 v70,2013-12-05 08:59:00,
2013-12-05 03:04:00,6.7,2.6,30.23,West,270,17.0,31.0,83,0.00,,,0.00,Weather View 32 v70,2013-12-05 09:04:00,
2013-12-05 03:09:00,6.4,2.1,30.24,WNW,292,12.0,31.0,82,0.00,,,0.00,Weather View 32 v70,2013-12-05 09:09:00,
2013-12-05 03:14:00,6.4,2.3,30.24,WNW,292,16.0,31.0,83,0.00,,,0.00,Weather View 32 v70,2013-12-05 09:14:00,
2013-12-05 03:19:00,6.5,2.4,30.24,West,270,12.0,31.0,83,0.00,,,0.00,Weather View 32 v70,2013-12-05 09:19:00,
2013-12-05 03:24:00,6.2,1.9,30.24,West,270,22.0,31.0,82,0.00,,,0.00,Weather View 32 v70,2013-12-05 09:24:00,
2013-12-05 03:29:00,6.2,1.9,30.24,West,270,16.0,28.0,82,0.00,,,0.00,Weather View 32 v70,2013-12-05 09:29:00,
2013-12-05 03:34:00,6.1,1.3,30.24,West,270,16.0,28.0,80,0.00,,,0.00,Weather View 32 v70,2013-12-05 09:34:00,
2013-12-05 03:39:00,6.3,2.3,30.24,West,270,13.0,28.0,83,0.00,,,0.00,Weather View 32 v70,2013-12-05 09:39:00,
2013-12-05 03:44:00,6.1,1.3,30.24,WNW,292,25.0,28.0,80,0.00,,,0.00,Weather View 32 v70,2013-12-05 09:44:00,
2013-12-05 03:49:00,5.9,1.1,30.25,WNW,292,12.0,28.0,80,0.00,,,0.00,Weather View 32 v70,2013-12-05 09:49:00,
2013-12-05 03:54:00,5.9,1.6,30.24,West,270,9.0,28.0,82,0.00,,,0.00,Weather View 32 v70,2013-12-05 09:54:00,
2013-12-05 03:59:00,5.8,1.5,30.25,West,270,15.0,28.0,82,0.00,,,0.00,Weather View 32 v70,2013-12-05 09:59:00,
2013-12-05 04:04:00,5.8,1.5,30.25,WNW,292,15.0,28.0,82,0.00,,,0.00,Weather View 32 v70,2013-12-05 10:04:00,
2013-12-05 04:09:00,5.8,1.5,30.25,WNW,292,11.0,28.0,82,0.00,,,0.00,Weather View 32 v70,2013-12-05 10:09:00,
2013-12-05 04:14:00,5.9,1.9,30.24,West,270,11.0,28.0,83,0.00,,,0.00,Weather View 32 v70,2013-12-05 10:14:00,
2013-12-05 04:19:00,5.8,1.5,30.25,WNW,292,14.0,27.0,82,0.00,,,0.00,Weather View 32 v70,2013-12-05 10:19:00,
2013-12-05 04:24:00,5.6,1.3,30.24,West,270,7.0,27.0,82,0.00,,,0.00,Weather View 32 v70,2013-12-05 10:24:00,
2013-12-05 04:29:00,5.6,1.3,30.25,West,270,10.0,27.0,82,0.00,,,0.00,Weather View 32 v70,2013-12-05 10:29:00,
2013-12-05 04:34:00,5.6,1.8,30.26,WNW,292,11.0,27.0,84,0.00,,,0.00,Weather View 32 v70,2013-12-05 10:34:00,
2013-12-05 04:39:00,5.5,1.5,30.26,West,270,12.0,27.0,83,0.00,,,0.00,Weather View 32 v70,2013-12-05 10:39:00,
2013-12-05 04:44:00,5.4,1.6,30.27,West,270,11.0,27.0,84,0.00,,,0.00,Weather View 32 v70,2013-12-05 10:44:00,
2013-12-05 04:49:00,5.3,1.5,30.27,WNW,292,19.0,27.0,84,0.00,,,0.00,Weather View 32 v70,2013-12-05 10:49:00,
2013-12-05 04:54:00,5.2,1.2,30.27,West,270,11.0,27.0,83,0.00,,,0.00,Weather View 32 v70,2013-12-05 10:54:00,
2013-12-05 04:59:00,5.1,0.8,30.27,West,270,12.0,27.0,82,0.00,,,0.00,Weather View 32 v70,2013-12-05 10:59:00,
2013-12-05 05:04:00,4.9,0.6,30.28,West,270,10.0,27.0,82,0.00,,,0.00,Weather View 32 v70,2013-12-05 11:04:00,
2013-12-05 05:09:00,4.9,0.6,30.27,WSW,247,9.0,27.0,82,0.00,,,0.00,Weather View 32 v70,2013-12-05 11:09:00,
2013-12-05 05:14:00,5.1,1.1,30.27,West,270,15.0,26.0,83,0.00,,,0.00,Weather View 32 v70,2013-12-05 11:14:00,
2013-12-05 05:19:00,5.1,1.6,30.27,WNW,292,11.0,26.0,85,0.00,,,0.00,Weather View 32 v70,2013-12-05 11:19:00,
2013-12-05 05:24:00,4.9,0.9,30.28,WNW,292,12.0,26.0,83,0.00,,,0.00,Weather View 32 v70,2013-12-05 11:24:00,
2013-12-05 05:29:00,4.9,1.1,30.28,WNW,292,16.0,26.0,84,0.00,,,0.00,Weather View 32 v70,2013-12-05 11:29:00,
2013-12-05 05:34:00,4.9,1.4,30.27,West,270,7.0,26.0,85,0.00,,,0.00,Weather View 32 v70,2013-12-05 11:34:00,
2013-12-05 05:39:00,4.9,0.9,30.27,West,270,7.0,24.0,83,0.00,,,0.00,Weather View 32 v70,2013-12-05 11:39:00,
2013-12-05 05:44:00,4.8,0.8,30.27,WSW,247,6.0,24.0,83,0.00,,,0.00,Weather View 32 v70,2013-12-05 11:44:00,
2013-12-05 05:49:00,4.8,1.0,30.28,West,270,9.0,24.0,84,0.00,,,0.00,Weather View 32 v70,2013-12-05 11:49:00,
2013-12-05 05:54:00,4.8,1.0,30.28,West,270,9.0,25.0,84,0.00,,,0.00,Weather View 32 v70,2013-12-05 11:54:00,
2013-12-05 05:59:00,4.6,0.3,30.27,West,270,9.0,25.0,82,0.00,,,0.00,Weather View 32 v70,2013-12-05 11:59:00,
2013-12-05 06:04:00,4.6,0.8,30.28,West,270,14.0,25.0,84,0.00,,,0.00,Weather View 32 v70,2013-12-05 12:04:00,
2013-12-05 06:09:00,4.8,1.3,30.29,West,270,11.0,25.0,85,0.00,,,0.00,Weather View 32 v70,2013-12-05 12:09:00,
2013-12-05 06:14:00,4.5,0.5,30.29,WNW,292,11.0,25.0,83,0.00,,,0.00,Weather View 32 v70,2013-12-05 12:14:00,
2013-12-05 06:19:00,4.4,0.4,30.29,West,270,12.0,25.0,83,0.00,,,0.00,Weather View 32 v70,2013-12-05 12:19:00,
2013-12-05 06:25:00,4.3,0.0,30.29,WSW,247,3.0,25.0,82,0.00,,,0.00,Weather View 32 v70,2013-12-05 12:25:00,
2013-12-05 06:30:00,4.2,-0.1,30.30,West,270,12.0,25.0,82,0.00,,,0.00,Weather View 32 v70,2013-12-05 12:30:00,
2013-12-05 06:35:00,4.1,-0.2,30.30,WNW,292,14.0,25.0,82,0.00,,,0.00,Weather View 32 v70,2013-12-05 12:35:00,
2013-12-05 06:40:00,4.2,0.2,30.29,WNW,292,13.0,25.0,83,0.00,,,0.00,Weather View 32 v70,2013-12-05 12:40:00,
2013-12-05 06:45:00,4.3,0.3,30.29,West,270,14.0,25.0,83,0.00,,,0.00,Weather View 32 v70,2013-12-05 12:45:00,
2013-12-05 06:50:00,4.3,0.3,30.29,WNW,292,16.0,25.0,83,0.00,,,0.00,Weather View 32 v70,2013-12-05 12:50:00,
2013-12-05 06:55:00,4.2,0.2,30.29,West,270,5.0,25.0,83,0.00,,,0.00,Weather View 32 v70,2013-12-05 12:55:00,
2013-12-05 07:00:00,3.9,-0.6,30.30,WNW,292,12.0,23.0,81,0.00,,,0.00,Weather View 32 v70,2013-12-05 13:00:00,
2013-12-05 07:05:00,4.1,0.1,30.30,West,270,14.0,23.0,83,0.00,,,0.00,Weather View 32 v70,2013-12-05 13:05:00,
2013-12-05 07:10:00,3.9,-0.9,30.29,WNW,292,14.0,23.0,80,0.00,,,0.00,Weather View 32 v70,2013-12-05 13:10:00,
2013-12-05 07:15:00,4.1,-0.2,30.29,West,270,12.0,23.0,82,0.00,,,0.00,Weather View 32 v70,2013-12-05 13:15:00,
2013-12-05 07:20:00,3.9,-0.6,30.30,WNW,292,9.0,23.0,81,0.00,,,0.00,Weather View 32 v70,2013-12-05 13:20:00,
2013-12-05 07:25:00,3.7,-1.1,30.32,West,270,10.0,23.0,80,0.00,,,0.00,Weather View 32 v70,2013-12-05 13:25:00,
2013-12-05 07:30:00,3.7,-0.8,30.32,WSW,247,4.0,23.0,81,0.00,,,0.00,Weather View 32 v70,2013-12-05 13:30:00,
2013-12-05 07:35:00,3.6,-1.2,30.32,West,270,9.0,23.0,80,0.00,,,0.00,Weather View 32 v70,2013-12-05 13:35:00,
2013-12-05 07:40:00,3.4,-1.4,30.32,West,270,12.0,23.0,80,0.00,,,0.00,Weather View 32 v70,2013-12-05 13:40:00,
2013-12-05 07:45:00,3.7,-0.3,30.33,NW,315,10.0,22.0,83,0.00,,,0.00,Weather View 32 v70,2013-12-05 13:45:00,
2013-12-05 07:50:00,3.6,-0.9,30.32,West,270,12.0,22.0,81,0.00,,,0.00,Weather View 32 v70,2013-12-05 13:50:00,
2013-12-05 07:55:00,3.6,-0.4,30.32,SW,225,4.0,22.0,83,0.00,,,0.00,Weather View 32 v70,2013-12-05 13:55:00,
2013-12-05 08:00:00,3.5,-0.8,30.32,WNW,292,14.0,22.0,82,0.00,,,0.00,Weather View 32 v70,2013-12-05 14:00:00,
2013-12-05 08:05:00,3.4,-1.1,30.32,West,270,12.0,22.0,81,0.00,,,0.00,Weather View 32 v70,2013-12-05 14:05:00,
2013-12-05 08:10:00,3.4,-1.1,30.33,West,270,12.0,22.0,81,0.00,,,0.00,Weather View 32 v70,2013-12-05 14:10:00,
2013-12-05 08:15:00,3.5,-1.3,30.33,West,270,9.0,22.0,80,0.00,,,0.00,Weather View 32 v70,2013-12-05 14:15:00,
2013-12-05 08:20:00,3.5,-1.3,30.32,West,270,15.0,23.0,80,0.00,,,0.00,Weather View 32 v70,2013-12-05 14:20:00,
2013-12-05 08:25:00,3.7,-0.8,30.33,WNW,292,15.0,26.0,81,0.00,,,0.00,Weather View 32 v70,2013-12-05 14:25:00,
2013-12-05 08:30:00,3.6,-1.4,30.33,WNW,292,16.0,26.0,79,0.00,,,0.00,Weather View 32 v70,2013-12-05 14:30:00,
2013-12-05 08:35:00,3.8,-1.0,30.33,SW,225,9.0,26.0,80,0.00,,,0.00,Weather View 32 v70,2013-12-05 14:35:00,
2013-12-05 08:40:00,3.6,-1.7,30.33,West,270,12.0,33.0,78,0.00,,,0.00,Weather View 32 v70,2013-12-05 14:40:00,
2013-12-05 08:45:00,3.9,-0.9,30.33,WNW,292,11.0,33.0,80,0.00,,,0.00,Weather View 32 v70,2013-12-05 14:45:00,
2013-12-05 08:50:00,4.1,-0.4,30.33,NW,315,16.0,33.0,81,0.00,,,0.00,Weather View 32 v70,2013-12-05 14:50:00,
2013-12-05 08:55:00,4.1,-0.7,30.33,WNW,292,10.0,33.0,80,0.00,,,0.00,Weather View 32 v70,2013-12-05 14:55:00,
2013-12-05 09:00:00,4.3,-0.5,30.33,NW,315,24.0,33.0,80,0.00,,,0.00,Weather View 32 v70,2013-12-05 15:00:00,
2013-12-05 09:06:00,4.5,0.2,30.33,NW,315,20.0,33.0,82,0.00,,,0.00,Weather View 32 v70,2013-12-05 15:06:00,
2013-12-05 09:11:00,4.3,-0.2,30.33,NW,315,16.0,33.0,81,0.00,,,0.00,Weather View 32 v70,2013-12-05 15:11:00,
2013-12-05 09:16:00,4.3,-0.8,30.33,NW,315,17.0,33.0,79,0.00,,,0.00,Weather View 32 v70,2013-12-05 15:16:00,
2013-12-05 09:21:00,4.4,-0.4,30.33,West,270,10.0,33.0,80,0.00,,,0.00,Weather View 32 v70,2013-12-05 15:21:00,
2013-12-05 09:26:00,4.3,-0.8,30.32,WNW,292,11.0,33.0,79,0.00,,,0.00,Weather View 32 v70,2013-12-05 15:26:00,
2013-12-05 09:31:00,4.2,-1.4,30.34,NW,315,24.0,33.0,77,0.00,,,0.00,Weather View 32 v70,2013-12-05 15:31:00,
2013-12-05 09:36:00,4.3,-0.8,30.33,WNW,292,11.0,33.0,79,0.00,,,0.00,Weather View 32 v70,2013-12-05 15:36:00,
2013-12-05 09:41:00,4.3,-1.6,30.33,WNW,292,16.0,33.0,76,0.00,,,0.00,Weather View 32 v70,2013-12-05 15:41:00,
2013-12-05 09:46:00,4.5,-0.8,30.35,NW,315,15.0,33.0,78,0.00,,,0.00,Weather View 32 v70,2013-12-05 15:46:00,
2013-12-05 09:51:00,4.8,-0.3,30.35,West,270,16.0,33.0,79,0.00,,,0.00,Weather View 32 v70,2013-12-05 15:51:00,
2013-12-05 09:56:00,4.9,-1.0,30.36,NW,315,17.0,33.0,76,0.00,,,0.00,Weather View 32 v70,2013-12-05 15:56:00,
2013-12-05 10:01:00,5.1,-0.5,30.36,West,270,16.0,33.0,77,0.00,,,0.00,Weather View 32 v70,2013-12-05 16:01:00,
2013-12-05 10:06:00,5.2,-0.7,30.37,NW,315,16.0,33.0,76,0.00,,,0.00,Weather View 32 v70,2013-12-05 16:06:00,
2013-12-05 10:11:00,5.1,-0.8,30.37,WNW,292,12.0,33.0,76,0.00,,,0.00,Weather View 32 v70,2013-12-05 16:11:00,
2013-12-05 10:16:00,5.4,0.0,30.38,NW,315,21.0,33.0,78,0.00,,,0.00,Weather View 32 v70,2013-12-05 16:16:00,
2013-12-05 10:21:00,5.2,-0.7,30.38,NW,315,17.0,33.0,76,0.00,,,0.00,Weather View 32 v70,2013-12-05 16:21:00,
2013-12-05 10:26:00,5.4,-0.8,30.38,NW,315,18.0,33.0,75,0.00,,,0.00,Weather View 32 v70,2013-12-05 16:26:00,
2013-12-05 10:31:00,5.8,0.4,30.40,NW,315,22.0,33.0,78,0.00,,,0.00,Weather View 32 v70,2013-12-05 16:31:00,
2013-12-05 10:36:00,5.6,-0.6,30.37,WNW,292,23.0,33.0,75,0.00,,,0.00,Weather View 32 v70,2013-12-05 16:36:00,
2013-12-05 10:41:00,6.3,1.2,30.39,WNW,292,17.0,31.0,79,0.00,,,0.00,Weather View 32 v70,2013-12-05 16:41:00,
2013-12-05 10:46:00,5.9,-0.9,30.40,WNW,292,14.0,31.0,73,0.00,,,0.00,Weather View 32 v70,2013-12-05 16:46:00,
2013-12-05 10:51:00,5.8,-1.0,30.40,NW,315,26.0,31.0,73,0.00,,,0.00,Weather View 32 v70,2013-12-05 16:51:00,
2013-12-05 10:56:00,5.9,-0.3,30.40,NW,315,20.0,31.0,75,0.00,,,0.00,Weather View 32 v70,2013-12-05 16:56:00,
2013-12-05 11:01:00,6.3,0.1,30.39,West,270,17.0,29.0,75,0.00,,,0.00,Weather View 32 v70,2013-12-05 17:01:00,
2013-12-05 11:06:00,6.2,-0.6,30.40,WNW,292,19.0,29.0,73,0.00,,,0.00,Weather View 32 v70,2013-12-05 17:06:00,
2013-12-05 11:11:00,6.8,1.4,30.39,NW,315,11.0,29.0,78,0.00,,,0.00,Weather View 32 v70,2013-12-05 17:11:00,
2013-12-05 11:16:00,6.9,0.7,30.39,West,270,14.0,29.0,75,0.00,,,0.00,Weather View 32 v70,2013-12-05 17:16:00,
2013-12-05 11:21:00,6.8,0.0,30.39,West,270,16.0,28.0,73,0.00,,,0.00,Weather View 32 v70,2013-12-05 17:21:00,
2013-12-05 11:26:00,6.9,0.7,30.39,NW,315,21.0,28.0,75,0.00,,,0.00,Weather View 32 v70,2013-12-05 17:26:00,
2013-12-05 11:31:00,7.1,0.6,30.39,West,270,15.0,28.0,74,0.00,,,0.00,Weather View 32 v70,2013-12-05 17:31:00,
2013-12-05 11:36:00,7.1,0.9,30.37,WNW,292,18.0,26.0,75,0.00,,,0.00,Weather View 32 v70,2013-12-05 17:36:00,
2013-12-05 11:41:00,6.9,0.1,30.38,WNW,292,17.0,26.0,73,0.00,,,0.00,Weather View 32 v70,2013-12-05 17:41:00,
2013-12-05 11:46:00,7.1,0.9,30.38,WNW,292,12.0,31.0,75,0.00,,,0.00,Weather View 32 v70,2013-12-05 17:46:00,
2013-12-05 11:52:00,7.2,0.7,30.37,NW,315,21.0,31.0,74,0.00,,,0.00,Weather View 32 v70,2013-12-05 17:52:00,
2013-12-05 11:57:00,7.2,1.0,30.37,NW,315,17.0,31.0,75,0.00,,,0.00,Weather View 32 v70,2013-12-05 17:57:00,
2013-12-05 12:02:00,7.4,0.9,30.36,West,270,10.0,31.0,74,0.00,,,0.00,Weather View 32 v70,2013-12-05 18:02:00,
2013-12-05 12:07:00,7.4,0.9,30.36,WNW,292,21.0,31.0,74,0.00,,,0.00,Weather View 32 v70,2013-12-05 18:07:00,
2013-12-05 12:12:00,7.8,1.5,30.35,WNW,292,23.0,31.0,75,0.00,,,0.00,Weather View 32 v70,2013-12-05 18:12:00,
2013-12-05 12:17:00,7.7,1.2,30.36,NW,315,25.0,31.0,74,0.00,,,0.00,Weather View 32 v70,2013-12-05 18:17:00,
2013-12-05 12:22:00,7.6,0.8,30.34,WNW,292,16.0,31.0,73,0.00,,,0.00,Weather View 32 v70,2013-12-05 18:22:00,
2013-12-05 12:27:00,7.6,0.8,30.35,WNW,292,11.0,31.0,73,0.00,,,0.00,Weather View 32 v70,2013-12-05 18:27:00,
2013-12-05 12:32:00,7.8,1.0,30.35,NW,315,20.0,31.0,73,0.00,,,0.00,Weather View 32 v70,2013-12-05 18:32:00,
2013-12-05 12:37:00,7.7,0.9,30.35,NW,315,20.0,31.0,73,0.00,,,0.00,Weather View 32 v70,2013-12-05 18:37:00,
2013-12-05 12:42:00,7.8,1.0,30.35,NW,315,29.0,31.0,73,0.00,,,0.00,Weather View 32 v70,2013-12-05 18:42:00,
2013-12-05 12:47:00,8.2,1.9,30.35,WNW,292,16.0,31.0,75,0.00,,,0.00,Weather View 32 v70,2013-12-05 18:47:00,
2013-12-05 12:52:00,7.9,1.1,30.35,WNW,292,16.0,36.0,73,0.00,,,0.00,Weather View 32 v70,2013-12-05 18:52:00,
2013-12-05 12:57:00,7.9,0.2,30.33,WNW,292,21.0,36.0,70,0.00,,,0.00,Weather View 32 v70,2013-12-05 18:57:00,
2013-12-05 13:02:00,7.9,-0.1,30.35,WNW,292,19.0,36.0,69,0.00,,,0.00,Weather View 32 v70,2013-12-05 19:02:00,
2013-12-05 13:07:00,8.1,0.4,30.35,West,270,12.0,36.0,70,0.00,,,0.00,Weather View 32 v70,2013-12-05 19:07:00,
2013-12-05 13:12:00,8.3,0.8,30.36,WNW,292,19.0,36.0,71,0.00,,,0.00,Weather View 32 v70,2013-12-05 19:12:00,
2013-12-05 13:17:00,8.1,-0.3,30.35,NW,315,11.0,36.0,68,0.00,,,0.00,Weather View 32 v70,2013-12-05 19:17:00,
2013-12-05 13:22:00,8.2,0.8,30.35,West,270,9.0,36.0,71,0.00,,,0.00,Weather View 32 v70,2013-12-05 19:22:00,
2013-12-05 13:27:00,7.9,-0.1,30.36,West,270,12.0,36.0,69,0.00,,,0.00,Weather View 32 v70,2013-12-05 19:27:00,
2013-12-05 13:32:00,8.1,0.4,30.35,West,270,11.0,36.0,70,0.00,,,0.00,Weather View 32 v70,2013-12-05 19:32:00,
2013-12-05 13:37:00,8.1,0.7,30.35,NW,315,14.0,36.0,71,0.00,,,0.00,Weather View 32 v70,2013-12-05 19:37:00,
2013-12-05 13:42:00,8.4,1.5,30.33,NW,315,24.0,36.0,73,0.00,,,0.00,Weather View 32 v70,2013-12-05 19:42:00,
2013-12-05 13:47:00,8.3,1.1,30.33,WNW,292,21.0,36.0,72,0.00,,,0.00,Weather View 32 v70,2013-12-05 19:47:00,
2013-12-05 13:52:00,8.5,1.6,30.33,NW,315,25.0,34.0,73,0.00,,,0.00,Weather View 32 v70,2013-12-05 19:52:00,
2013-12-05 13:57:00,8.4,0.9,30.33,WNW,292,21.0,34.0,71,0.00,,,0.00,Weather View 32 v70,2013-12-05 19:57:00,
2013-12-05 14:02:00,8.6,1.4,30.33,NW,315,10.0,34.0,72,0.00,,,0.00,Weather View 32 v70,2013-12-05 20:02:00,
2013-12-05 14:07:00,8.4,0.9,30.34,WNW,292,12.0,34.0,71,0.00,,,0.00,Weather View 32 v70,2013-12-05 20:07:00,
2013-12-05 14:12:00,8.2,1.0,30.34,NW,315,18.0,32.0,72,0.00,,,0.00,Weather View 32 v70,2013-12-05 20:12:00,
2013-12-05 14:18:00,8.4,0.9,30.34,NW,315,20.0,32.0,71,0.00,,,0.00,Weather View 32 v70,2013-12-05 20:18:00,
2013-12-05 14:23:00,8.6,2.0,30.33,NW,315,17.0,32.0,74,0.00,,,0.00,Weather View 32 v70,2013-12-05 20:23:00,
2013-12-05 14:28:00,8.8,1.9,30.34,NW,315,21.0,32.0,73,0.00,,,0.00,Weather View 32 v70,2013-12-05 20:28:00,
2013-12-05 14:33:00,8.8,1.3,30.35,West,270,11.0,32.0,71,0.00,,,0.00,Weather View 32 v70,2013-12-05 20:33:00,
2013-12-05 14:38:00,8.7,1.8,30.34,WNW,292,10.0,32.0,73,0.00,,,0.00,Weather View 32 v70,2013-12-05 20:38:00,
2013-12-05 14:43:00,8.4,1.2,30.35,West,270,12.0,32.0,72,0.00,,,0.00,Weather View 32 v70,2013-12-05 20:43:00,
2013-12-05 14:48:00,8.6,1.7,30.35,NW,315,13.0,32.0,73,0.00,,,0.00,Weather View 32 v70,2013-12-05 20:48:00,
2013-12-05 14:53:00,8.6,0.8,30.35,West,270,6.0,32.0,70,0.00,,,0.00,Weather View 32 v70,2013-12-05 20:53:00,
2013-12-05 14:58:00,8.6,0.5,30.35,West,270,8.0,26.0,69,0.00,,,0.00,Weather View 32 v70,2013-12-05 20:58:00,
2013-12-05 15:03:00,8.3,0.2,30.36,West,270,11.0,26.0,69,0.00,,,0.00,Weather View 32 v70,2013-12-05 21:03:00,
2013-12-05 15:08:00,8.3,0.5,30.36,West,270,7.0,26.0,70,0.00,,,0.00,Weather View 32 v70,2013-12-05 21:08:00,
2013-12-05 15:13:00,8.3,0.8,30.35,NW,315,12.0,26.0,71,0.00,,,0.00,Weather View 32 v70,2013-12-05 21:13:00,
2013-12-05 15:18:00,8.3,0.8,30.36,WNW,292,17.0,26.0,71,0.00,,,0.00,Weather View 32 v70,2013-12-05 21:18:00,
2013-12-05 15:23:00,8.1,0.7,30.35,NW,315,12.0,23.0,71,0.00,,,0.00,Weather View 32 v70,2013-12-05 21:23:00,
2013-12-05 15:28:00,8.1,1.2,30.36,WNW,292,14.0,23.0,73,0.00,,,0.00,Weather View 32 v70,2013-12-05 21:28:00,
2013-12-05 15:33:00,7.8,-0.2,30.36,West,270,7.0,23.0,69,0.00,,,0.00,Weather View 32 v70,2013-12-05 21:33:00,
2013-12-05 15:38:00,7.8,0.1,30.36,NW,315,16.0,23.0,70,0.00,,,0.00,Weather View 32 v70,2013-12-05 21:38:00,
2013-12-05 15:43:00,7.9,0.2,30.37,WNW,292,9.0,23.0,70,0.00,,,0.00,Weather View 32 v70,2013-12-05 21:43:00,
2013-12-05 15:48:00,7.8,0.4,30.37,West,270,12.0,23.0,71,0.00,,,0.00,Weather View 32 v70,2013-12-05 21:48:00,
2013-12-05 15:53:00,7.7,0.3,30.38,WNW,292,7.0,22.0,71,0.00,,,0.00,Weather View 32 v70,2013-12-05 21:53:00,
2013-12-05 15:58:00,7.5,0.1,30.38,WNW,292,9.0,22.0,71,0.00,,,0.00,Weather View 32 v70,2013-12-05 21:58:00,
2013-12-05 16:03:00,7.5,0.4,30.38,West,270,9.0,22.0,72,0.00,,,0.00,Weather View 32 v70,2013-12-05 22:03:00,
2013-12-05 16:08:00,7.2,-0.2,30.39,WNW,292,12.0,22.0,71,0.00,,,0.00,Weather View 32 v70,2013-12-05 22:08:00,
2013-12-05 16:13:00,7.2,-0.8,30.38,West,270,10.0,22.0,69,0.00,,,0.00,Weather View 32 v70,2013-12-05 22:13:00,
2013-12-05 16:18:00,7.1,-0.6,30.39,West,270,6.0,22.0,70,0.00,,,0.00,Weather View 32 v70,2013-12-05 22:18:00,
2013-12-05 16:23:00,6.9,-0.5,30.39,West,270,12.0,22.0,71,0.00,,,0.00,Weather View 32 v70,2013-12-05 22:23:00,
2013-12-05 16:28:00,6.9,-0.2,30.39,WNW,292,10.0,22.0,72,0.00,,,0.00,Weather View 32 v70,2013-12-05 22:28:00,
2013-12-05 16:33:00,6.8,-0.6,30.39,West,270,5.0,22.0,71,0.00,,,0.00,Weather View 32 v70,2013-12-05 22:33:00,
2013-12-05 16:38:00,6.5,-0.9,30.40,NW,315,14.0,22.0,71,0.00,,,0.00,Weather View 32 v70,2013-12-05 22:38:00,
2013-12-05 16:43:00,6.2,-0.6,30.40,NW,315,12.0,22.0,73,0.00,,,0.00,Weather View 32 v70,2013-12-05 22:43:00,
2013-12-05 16:48:00,5.9,-0.9,30.40,WNW,292,10.0,22.0,73,0.00,,,0.00,Weather View 32 v70,2013-12-05 22:48:00,
2013-12-05 16:53:00,5.6,-0.9,30.40,WSW,247,2.0,22.0,74,0.00,,,0.00,Weather View 32 v70,2013-12-05 22:53:00,
2013-12-05 16:58:00,5.5,-0.7,30.40,West,270,4.0,22.0,75,0.00,,,0.00,Weather View 32 v70,2013-12-05 22:58:00,
2013-12-05 17:03:00,5.4,-0.8,30.40,WNW,292,10.0,22.0,75,0.00,,,0.00,Weather View 32 v70,2013-12-05 23:03:00,
2013-12-05 17:08:00,5.3,-0.6,30.42,WNW,292,9.0,22.0,76,0.00,,,0.00,Weather View 32 v70,2013-12-05 23:08:00,
2013-12-05 17:13:00,5.1,-0.2,30.42,NW,315,7.0,17.0,78,0.00,,,0.00,Weather View 32 v70,2013-12-05 23:13:00,
2013-12-05 17:18:00,4.9,-0.4,30.42,West,270,7.0,17.0,78,0.00,,,0.00,Weather View 32 v70,2013-12-05 23:18:00,
2013-12-05 17:24:00,4.6,-1.3,30.42,WNW,292,8.0,17.0,76,0.00,,,0.00,Weather View 32 v70,2013-12-05 23:24:00,
2013-12-05 17:29:00,4.4,-1.2,30.42,WNW,292,7.0,17.0,77,0.00,,,0.00,Weather View 32 v70,2013-12-05 23:29:00,
2013-12-05 17:34:00,4.4,-1.2,30.43,WNW,292,4.0,17.0,77,0.00,,,0.00,Weather View 32 v70,2013-12-05 23:34:00,
2013-12-05 17:39:00,4.3,-1.0,30.43,WNW,292,5.0,17.0,78,0.00,,,0.00,Weather View 32 v70,2013-12-05 23:39:00,
2013-12-05 17:44:00,4.1,-1.2,30.44,WNW,292,7.0,16.0,78,0.00,,,0.00,Weather View 32 v70,2013-12-05 23:44:00,
2013-12-05 17:49:00,3.9,-2.0,30.44,West,270,4.0,12.0,76,0.00,,,0.00,Weather View 32 v70,2013-12-05 23:49:00,
2013-12-05 17:54:00,3.7,-2.2,30.45,West,270,5.0,12.0,76,0.00,,,0.00,Weather View 32 v70,2013-12-05 23:54:00,
2013-12-05 17:59:00,3.4,-2.5,30.45,West,270,6.0,12.0,76,0.00,,,0.00,Weather View 32 v70,2013-12-05 23:59:00,
2013-12-05 18:04:00,3.3,-2.3,30.46,West,270,4.0,12.0,77,0.00,,,0.00,Weather View 32 v70,2013-12-06 00:04:00,
2013-12-05 18:09:00,3.1,-2.5,30.46,West,270,1.0,12.0,77,0.00,,,0.00,Weather View 32 v70,2013-12-06 00:09:00,
2013-12-05 18:14:00,3.1,-2.5,30.46,West,270,3.0,12.0,77,0.00,,,0.00,Weather View 32 v70,2013-12-06 00:14:00,
2013-12-05 18:19:00,3.1,-2.7,30.46,West,270,5.0,12.0,76,0.00,,,0.00,Weather View 32 v70,2013-12-06 00:19:00,
2013-12-05 18:24:00,3.1,-2.7,30.47,West,270,2.0,12.0,76,0.00,,,0.00,Weather View 32 v70,2013-12-06 00:24:00,
2013-12-05 18:29:00,3.1,-2.7,30.46,WNW,292,4.0,12.0,76,0.00,,,0.00,Weather View 32 v70,2013-12-06 00:29:00,
2013-12-05 18:34:00,3.2,-2.1,30.47,West,270,5.0,12.0,78,0.00,,,0.00,Weather View 32 v70,2013-12-06 00:34:00,
2013-12-05 18:39:00,3.1,-2.5,30.47,West,270,5.0,9.0,77,0.00,,,0.00,Weather View 32 v70,2013-12-06 00:39:00,
2013-12-05 18:44:00,2.9,-2.9,30.47,West,270,2.0,9.0,76,0.00,,,0.00,Weather View 32 v70,2013-12-06 00:44:00,
2013-12-05 18:49:00,2.8,-2.8,30.47,West,270,2.0,8.0,77,0.00,,,0.00,Weather View 32 v70,2013-12-06 00:49:00,
2013-12-05 18:54:00,2.7,-3.1,30.48,West,270,2.0,8.0,76,0.00,,,0.00,Weather View 32 v70,2013-12-06 00:54:00,
2013-12-05 18:59:00,2.6,-3.2,30.48,WSW,247,1.0,8.0,76,0.00,,,0.00,Weather View 32 v70,2013-12-06 00:59:00,
2013-12-05 19:04:00,2.5,-3.1,30.47,West,270,1.0,8.0,77,0.00,,,0.00,Weather View 32 v70,2013-12-06 01:04:00,
2013-12-05 19:09:00,2.4,-3.1,30.48,West,270,2.0,8.0,77,0.00,,,0.00,Weather View 32 v70,2013-12-06 01:09:00,
2013-12-05 19:14:00,2.4,-3.1,30.48,West,270,2.0,8.0,77,0.00,,,0.00,Weather View 32 v70,2013-12-06 01:14:00,
2013-12-05 19:19:00,2.3,-3.2,30.48,West,270,3.0,8.0,77,0.00,,,0.00,Weather View 32 v70,2013-12-06 01:19:00,
2013-12-05 19:24:00,2.3,-3.5,30.48,West,270,4.0,8.0,76,0.00,,,0.00,Weather View 32 v70,2013-12-06 01:24:00,
2013-12-05 19:29:00,2.1,-3.7,30.48,West,270,6.0,8.0,76,0.00,,,0.00,Weather View 32 v70,2013-12-06 01:29:00,
2013-12-05 19:34:00,2.1,-3.7,30.48,West,270,6.0,8.0,76,0.00,,,0.00,Weather View 32 v70,2013-12-06 01:34:00,
2013-12-05 19:39:00,2.2,-3.6,30.48,West,270,6.0,9.0,76,0.00,,,0.00,Weather View 32 v70,2013-12-06 01:39:00,
2013-12-05 19:44:00,2.1,-3.7,30.48,West,270,6.0,9.0,76,0.00,,,0.00,Weather View 32 v70,2013-12-06 01:44:00,
2013-12-05 19:49:00,2.1,-3.7,30.48,West,270,6.0,9.0,76,0.00,,,0.00,Weather View 32 v70,2013-12-06 01:49:00,
2013-12-05 19:55:00,1.9,-3.9,30.48,West,270,4.0,9.0,76,0.00,,,0.00,Weather View 32 v70,2013-12-06 01:55:00,
2013-12-05 20:00:00,1.8,-4.0,30.48,West,270,2.0,9.0,76,0.00,,,0.00,Weather View 32 v70,2013-12-06 02:00:00,
2013-12-05 20:05:00,1.7,-4.1,30.48,West,270,3.0,9.0,76,0.00,,,0.00,Weather View 32 v70,2013-12-06 02:05:00,
2013-12-05 20:10:00,1.8,-3.7,30.48,West,270,5.0,9.0,77,0.00,,,0.00,Weather View 32 v70,2013-12-06 02:10:00,
2013-12-05 20:15:00,1.9,-3.9,30.48,West,270,6.0,9.0,76,0.00,,,0.00,Weather View 32 v70,2013-12-06 02:15:00,
2013-12-05 20:20:00,1.7,-4.1,30.48,WNW,292,5.0,9.0,76,0.00,,,0.00,Weather View 32 v70,2013-12-06 02:20:00,
2013-12-05 20:25:00,1.8,-3.5,30.48,West,270,5.0,9.0,78,0.00,,,0.00,Weather View 32 v70,2013-12-06 02:25:00,
2013-12-05 20:30:00,1.8,-2.9,30.48,West,270,5.0,9.0,80,0.00,,,0.00,Weather View 32 v70,2013-12-06 02:30:00,
2013-12-05 20:35:00,1.7,-3.0,30.49,West,270,2.0,9.0,80,0.00,,,0.00,Weather View 32 v70,2013-12-06 02:35:00,
2013-12-05 20:40:00,1.5,-3.2,30.49,West,270,4.0,9.0,80,0.00,,,0.00,Weather View 32 v70,2013-12-06 02:40:00,
2013-12-05 20:45:00,1.1,-3.9,30.49,WNW,292,6.0,9.0,79,0.00,,,0.00,Weather View 32 v70,2013-12-06 02:45:00,
2013-12-05 20:50:00,1.1,-3.6,30.49,West,270,4.0,9.0,80,0.00,,,0.00,Weather View 32 v70,2013-12-06 02:50:00,
2013-12-05 20:55:00,1.3,-3.7,30.49,West,270,7.0,9.0,79,0.00,,,0.00,Weather View 32 v70,2013-12-06 02:55:00,
2013-12-05 21:00:00,1.4,-4.4,30.50,West,270,4.0,10.0,76,0.00,,,0.00,Weather View 32 v70,2013-12-06 03:00:00,
2013-12-05 21:05:00,1.5,-4.6,30.50,West,270,7.0,10.0,75,0.00,,,0.00,Weather View 32 v70,2013-12-06 03:05:00,
2013-12-05 21:10:00,1.7,-4.4,30.50,West,270,7.0,12.0,75,0.00,,,0.00,Weather View 32 v70,2013-12-06 03:10:00,
2013-12-05 21:15:00,1.9,-3.9,30.49,West,270,5.0,12.0,76,0.00,,,0.00,Weather View 32 v70,2013-12-06 03:15:00,
2013-12-05 21:20:00,2.1,-4.0,30.49,West,270,9.0,12.0,75,0.00,,,0.00,Weather View 32 v70,2013-12-06 03:20:00,
2013-12-05 21:25:00,2.3,-3.8,30.49,WNW,292,7.0,12.0,75,0.00,,,0.00,Weather View 32 v70,2013-12-06 03:25:00,
2013-12-05 21:30:00,2.3,-3.5,30.49,WNW,292,9.0,15.0,76,0.00,,,0.00,Weather View 32 v70,2013-12-06 03:30:00,
2013-12-05 21:35:00,2.3,-3.8,30.49,WNW,292,11.0,16.0,75,0.00,,,0.00,Weather View 32 v70,2013-12-06 03:35:00,
2013-12-05 21:40:00,2.3,-3.5,30.50,WNW,292,9.0,16.0,76,0.00,,,0.00,Weather View 32 v70,2013-12-06 03:40:00,
2013-12-05 21:45:00,2.1,-4.3,30.50,WNW,292,12.0,16.0,74,0.00,,,0.00,Weather View 32 v70,2013-12-06 03:45:00,
2013-12-05 21:50:00,2.1,-4.0,30.50,West,270,8.0,17.0,75,0.00,,,0.00,Weather View 32 v70,2013-12-06 03:50:00,
2013-12-05 21:55:00,2.1,-4.0,30.50,WNW,292,4.0,17.0,75,0.00,,,0.00,Weather View 32 v70,2013-12-06 03:55:00,
2013-12-05 22:00:00,1.9,-4.2,30.50,West,270,6.0,17.0,75,0.01,,,0.00,Weather View 32 v70,2013-12-06 04:00:00,
2013-12-05 22:05:00,1.8,-4.3,30.50,WNW,292,9.0,17.0,75,0.00,,,0.00,Weather View 32 v70,2013-12-06 04:05:00,
2013-12-05 22:10:00,1.7,-4.1,30.51,NW,315,4.0,17.0,76,0.00,,,0.00,Weather View 32 v70,2013-12-06 04:10:00,
2013-12-05 22:15:00,1.7,-4.1,30.50,WNW,292,8.0,17.0,76,0.00,,,0.00,Weather View 32 v70,2013-12-06 04:15:00,
2013-12-05 22:20:00,1.5,-4.6,30.50,WNW,292,7.0,17.0,75,0.00,,,0.00,Weather View 32 v70,2013-12-06 04:20:00,
2013-12-05 22:25:00,1.3,-4.5,30.50,NW,315,12.0,17.0,76,0.00,,,0.00,Weather View 32 v70,2013-12-06 04:25:00,
2013-12-05 22:31:00,1.3,-4.5,30.51,WNW,292,11.0,17.0,76,0.00,,,0.00,Weather View 32 v70,2013-12-06 04:31:00,
2013-12-05 22:36:00,1.1,-4.7,30.51,WNW,292,8.0,17.0,76,0.00,,,0.00,Weather View 32 v70,2013-12-06 04:36:00,
2013-12-05 22:41:00,0.9,-4.9,30.51,NW,315,9.0,17.0,76,0.00,,,0.00,Weather View 32 v70,2013-12-06 04:41:00,
2013-12-05 22:46:00,0.2,-5.8,30.51,NW,315,1.0,17.0,75,0.00,,,0.00,Weather View 32 v70,2013-12-06 04:46:00,
2013-12-05 22:51:00,-0.3,-6.0,30.52,NW,315,3.0,17.0,76,0.00,,,0.00,Weather View 32 v70,2013-12-06 04:51:00,
2013-12-05 22:56:00,-0.1,-5.0,30.52,WNW,292,9.0,16.0,79,0.00,,,0.00,Weather View 32 v70,2013-12-06 04:56:00,
2013-12-05 23:01:00,0.2,-5.0,30.53,NW,315,11.0,16.0,78,0.00,,,0.00,Weather View 32 v70,2013-12-06 05:01:00,
2013-12-05 23:02:00,0.2,-5.0,30.53,NW,315,12.0,16.0,78,0.00,,,0.00,Weather View 32 v70,2013-12-06 05:02:00,
2013-12-05 23:07:00,0.3,-4.9,30.52,WNW,292,11.0,16.0,78,0.00,,,0.00,Weather View 32 v70,2013-12-06 05:07:00,
2013-12-05 23:12:00,-0.1,-5.6,30.52,West,270,10.0,16.0,77,0.00,,,0.00,Weather View 32 v70,2013-12-06 05:12:00,
2013-12-05 23:17:00,-0.4,-5.9,30.52,West,270,7.0,16.0,77,0.00,,,0.00,Weather View 32 v70,2013-12-06 05:17:00,
2013-12-05 23:22:00,-0.4,-5.6,30.52,WNW,292,10.0,16.0,78,0.00,,,0.00,Weather View 32 v70,2013-12-06 05:22:00,
2013-12-05 23:27:00,-0.5,-6.0,30.53,NW,315,12.0,16.0,77,0.00,,,0.00,Weather View 32 v70,2013-12-06 05:27:00,
2013-12-05 23:32:00,-0.5,-5.7,30.54,WNW,292,8.0,16.0,78,0.00,,,0.00,Weather View 32 v70,2013-12-06 05:32:00,
2013-12-05 23:37:00,-0.4,-5.1,30.53,West,270,5.0,18.0,80,0.00,,,0.00,Weather View 32 v70,2013-12-06 05:37:00,
2013-12-05 23:42:00,-0.5,-5.7,30.53,NW,315,10.0,18.0,78,0.00,,,0.00,Weather View 32 v70,2013-12-06 05:42:00,
2013-12-05 23:47:00,-0.8,-6.3,30.53,West,270,9.0,18.0,77,0.00,,,0.00,Weather View 32 v70,2013-12-06 05:47:00,
2013-12-05 23:52:00,-0.9,-6.4,30.53,NW,315,14.0,18.0,77,0.00,,,0.00,Weather View 32 v70,2013-12-06 05:52:00,
2013-12-05 23:57:00,-1.1,-6.3,30.53,West,270,6.0,18.0,78,0.00,,,0.00,Weather View 32 v70,2013-12-06 05:57:00,